Terminal Aerodrome Forecast
Issued by NWS Milwaukee/Sullivan, WI

Home | Current Version | Previous Version | Text Only | Print | Product List | Glossary On
Versions: 1 2 3 4 5 6 7 8 9 10 11 12 13 14 15 16 17 18 19 20 21 22 23 24 25 26 27 28 29 30 31 32 33 34 35 36 37 38 39 40 41 42 43 44 45 46 47 48 49
000
FTUS43 KMKX 080347 AAA
TAFMSN
TAF AMD
KMSN 080347Z 0804/0824 25006KT P6SM VCSH SCT010 OVC050
      TEMPO 0806/0807 6SM -RASN BKN010
     FM080700 27007KT 6SM -SN OVC025
     FM081000 30007KT 3SM -SN OVC015
     FM081900 31011G20KT 5SM -SN OVC015=

USA.gov is the U.S. government's official web portal to all federal, state and local government web resources and services.